CZ-6A DEB, 54533

Orbit data source: Space-Track

CZ-6A DEB, 54533 is space debris in SSO originally from a launch on Fri, 11 Nov 2022 UTC launched from the Taiyaun Space Center, China (TSC). Debris objects in space refer to the collection of defunct objects orbiting the Earth. Examples of debris include non-operational satellites, rocket bodies, and fragments generated from explosions, collisions, or faulty payload assembly.

Loading next visibility...
Identifier
54533, 2022-151KM
Orbit
SSO
Country
Flag of CNCN / PRC
Related business
Manufacturer
SAST
Mission
Spacecraft
Bus & Motor
Unknown
Mass
Unknown
Launch date (UTC)
2022-11-11 (4 years ago)
Launch vehicle
Unknown
Launch site
Taiyaun Space Center, China (TSC)
Object type
Payload
Rocket body
Debris
Shape & HBR
Unknown shape, 0.6 m
Radar Cross Section
Medium (>0.1 m² and <1 m²)

Expand to show TLE details & history
Last TLE update: 1 day ago

TLE from 1 day ago
0 CZ-6A DEB
1 54533U 22151KM  26237.37946857  .00000070  00000-0  66593-4 0  9990
2 54533  98.8665 229.5174 0067554 180.7993 179.3079 14.07087914194021
Epoch: 2026-08-25T09:06Z
TLE epoch observation values (Epoch: 2026-08-25T09:06:26.084Z)
Latitude
0.00003°
Longitude
119.26105°
Altitude
921.212 km
Speed
7.366 km/s
True Right ascension
15h 18m 04s
True Declination
0° 00' 00"
Sunlit
Object was in daylight at epoch
Visualization orbit readout
Latitude
Unknown
Longitude
Unknown
Altitude
Unknown
Speed
Unknown
Apparent Right ascension
Unknown
Apparent Declination
Unknown
Sunlit
N/A
Visualization observer readout
Local Sidereal Time
11:19:59
Azimuth
Unknown
Elevation
Unknown
Doppler factor
Unknown
Orbital elements
Apogee altitude
915.478 km
Perigee altitude
817.597 km
Semi-major axis
7,244.674 km
Eccentricity
0.00676
Inclination
98.8665°
RAAN
229.5174°
Arg. of periapsis
180.7993°
True anomaly
179.31717°
Mean anomaly
179.3079°
Eccentric anomaly
179.31254°
Mean motion
3.51977 °/min
Orbital period
102.28 mins
BSTAR
0.000066593
Loading maneuver chart data...
Computing Atmospheric mass density...
Loading historical data...
Loading historical data...
Loading historical data...
Loading historical data...
Loading historical data...
Loading historical data...
Loading historical data...

Documentation

Showing up to 5 results
|